Sigfox identifier Datetime Temperature Humidity SNR
0038AFD0 2018-10-09 09:17:43 21.2 40 17.1
0038AFD0 2018-10-09 08:14:25 21.2 39 16.9
0038AFD0 2018-10-09 07:11:11 21.2 39 16.7
0038AFD0 2018-10-09 06:07:52 21.2 38 16.6
0038AFD0 2018-10-09 05:04:32 21.2 38 16.8
0038AFD0 2018-10-09 01:54:39 21.2 37 15.9
0038AFD0 2018-10-09 00:51:19 21.2 37 15.8
0038AFD0 2018-10-08 23:48:01 21.3 37 15.7
0038AFD0 2018-10-08 22:44:41 21.2 37 16.1
0038AFD0 2018-10-08 21:41:21 21.3 36 16
0038AFD0 2018-10-08 20:38:01 21.3 36 15.7
0038AFD0 2018-10-08 19:34:44 21.2 36 15.7
0038AFD0 2018-10-08 18:31:23 21.2 36 15.8
0038AFD0 2018-10-08 17:28:04 21.2 36 16
0038AFD0 2018-10-08 16:24:42 21.2 35 16.1
0038AFD0 2018-10-08 15:21:24 21 35 16.1
0038AFD0 2018-10-08 14:17:59 21 35 16.5
0038AFD0 2018-10-08 13:14:39 21 34 16.4
0038AFD0 2018-10-08 12:11:16 20.8 34 16.3
0038AFD0 2018-10-08 11:07:55 20.8 34 16.3
0038AFD0 2018-10-08 09:01:12 20.8 35 16.3
0038AFD0 2018-10-08 07:57:50 20.8 35 16.4
0038AFD0 2018-10-08 06:54:32 20.8 35 16.3
0038AFD0 2018-10-08 05:51:08 20.8 35 16.7
0038AFD0 2018-10-08 04:47:47 20.8 36 16.8
0038AFD0 2018-10-08 03:44:27 20.8 36 17
0038AFD0 2018-10-08 02:41:08 20.8 36 17.1
0038AFD0 2018-10-08 01:37:50 20.8 36 16.9
0038AFD0 2018-10-08 00:34:32 20.9 37 17.2
0038AFD0 2018-10-07 23:31:13 21 37 17
0038AFD0 2018-10-07 22:27:54 21 37 17
0038AFD0 2018-10-07 21:24:34 21 37 16.9
0038AFD0 2018-10-07 20:21:18 21 37 17
0038AFD0 2018-10-07 19:18:02 21 37 16.7
0038AFD0 2018-10-07 18:14:42 21 37 16.7
0038AFD0 2018-10-07 17:11:23 21 37 16.8
0038AFD0 2018-10-07 16:08:05 21 37 17
0038AFD0 2018-10-07 15:04:44 21 37 16.6
0038AFD0 2018-10-07 14:01:24 21 37 16.6
0038AFD0 2018-10-07 12:58:03 21 37 16.3
0038AFD0 2018-10-07 11:54:41 21 38 16.3
0038AFD0 2018-10-07 10:51:19 21 38 15.7
0038AFD0 2018-10-07 09:47:56 21 38 15.7
0038AFD0 2018-10-07 08:44:33 21 38 15.7
0038AFD0 2018-10-07 07:41:11 21 38 15.8
0038AFD0 2018-10-07 06:37:51 21 38 15.8
0038AFD0 2018-10-07 05:34:30 21.1 38 15.8
0038AFD0 2018-10-07 04:31:09 21.1 38 15.8
0038AFD0 2018-10-07 03:27:48 21.1 38 15.5
0038AFD0 2018-10-07 02:24:29 21.1 38 15.5
0038AFD0 2018-10-07 01:21:12 21.2 38 15.3
0038AFD0 2018-10-07 00:17:49 21.2 38 15.1
0038AFD0 2018-10-06 23:14:26 21.2 38 15.1
0038AFD0 2018-10-06 22:11:06 21.2 38 14.6
0038AFD0 2018-10-06 21:07:42 21.2 38 14.6
0038AFD0 2018-10-06 20:04:20 21.2 38 14.5
0038AFD0 2018-10-06 19:01:01 21.2 39 14.9
0038AFD0 2018-10-06 17:57:38 21.2 39 14.6
0038AFD0 2018-10-06 16:54:19 21.2 39 14.5
0038AFD0 2018-10-06 15:50:58 21.2 39 14.5
0038AFD0 2018-10-06 14:47:40 21.2 39 14.4
0038AFD0 2018-10-06 13:44:17 21.2 39 14.1
0038AFD0 2018-10-06 12:40:54 21.2 39 14
0038AFD0 2018-10-06 11:37:32 21.2 39 13.9
0038AFD0 2018-10-06 10:34:15 21.2 39 13.9
0038AFD0 2018-10-06 09:30:50 21.3 39 13.9
0038AFD0 2018-10-06 08:27:26 21.2 39 14
0038AFD0 2018-10-06 07:24:02 21.3 40 14.1
0038AFD0 2018-10-06 06:20:38 21.4 40 14
0038AFD0 2018-10-06 05:17:13 21.4 40 13.9
0038AFD0 2018-10-06 04:13:51 21.4 40 13.9
0038AFD0 2018-10-06 03:10:26 21.4 40 13.6
0038AFD0 2018-10-06 02:07:02 21.4 40 13.7
0038AFD0 2018-10-06 01:03:38 21.4 41 13.3
0038AFD0 2018-10-06 00:00:16 21.5 41 13.3
0038AFD0 2018-10-05 22:56:55 21.7 41 13.2
0038AFD0 2018-10-05 21:53:36 21.7 41 13.2
0038AFD0 2018-10-05 20:50:15 21.7 41 12.8
0038AFD0 2018-10-05 19:46:52 21.7 41 13.1
0038AFD0 2018-10-05 18:43:30 21.7 41 13
0038AFD0 2018-10-05 17:40:09 21.7 41 13.1
0038AFD0 2018-10-05 16:36:45 21.7 41 13.1
0038AFD0 2018-10-05 15:33:21 21.7 41 13
0038AFD0 2018-10-05 14:29:59 21.6 40 13.1
0038AFD0 2018-10-05 13:26:35 21.5 40 13.4
0038AFD0 2018-10-05 12:23:12 21.4 39 13.6
0038AFD0 2018-10-05 11:19:55 21.4 37 13.6
0038AFD0 2018-10-05 09:13:08 21 33 13.9
0038AFD0 2018-10-05 08:09:46 21 30 14
0038AFD0 2018-10-05 07:06:23 21 29 14.2
0038AFD0 2018-10-05 06:03:02 21 29 14.1
0038AFD0 2018-10-05 04:59:40 21 28 14.3
0038AFD0 2018-10-05 03:56:17 21 29 14.3
0038AFD0 2018-10-05 02:52:53 21 29 14.2
0038AFD0 2018-10-05 01:49:28 21 29 14.2
0038AFD0 2018-10-05 00:46:05 21.2 29 14.2
0038AFD0 2018-10-04 23:42:43 21.2 29 15.6
0038AFD0 2018-10-04 22:39:23 21.2 29 15.6
0038AFD0 2018-10-04 21:35:58 21.2 29 15.5
0038AFD0 2018-10-04 20:32:38 21.2 29 15.6
0038AFD0 2018-10-04 19:29:11 21.2 29 16.5
0038AFD0 2018-10-04 17:22:18 21.2 29 16.6
0038AFD0 2018-10-04 16:18:54 21 29 16.7
0038AFD0 2018-10-04 15:15:29 21 29 16.8
0038AFD0 2018-10-04 11:01:52 20.6 31 16.9
0038AFD0 2018-10-04 09:58:23 20.6 32 17.1
0038AFD0 2018-10-04 08:55:01 20.5 33 16.9
0038AFD0 2018-10-04 07:51:33 20.5 34 17.1
0038AFD0 2018-10-04 06:48:08 20.6 36 17.3
0038AFD0 2018-10-04 05:44:39 20.6 37 17.3
0038AFD0 2018-10-04 04:41:15 20.6 37 17.3
0038AFD0 2018-10-04 03:37:54 20.6 38 17.5
0038AFD0 2018-10-04 02:34:26 20.6 38 17.6
0038AFD0 2018-10-04 01:31:04 20.6 38 17.7
0038AFD0 2018-10-04 00:27:36 20.6 39 17.7
0038AFD0 2018-10-03 23:24:14 20.7 39 18
0038AFD0 2018-10-03 22:20:52 20.7 40 18.1
0038AFD0 2018-10-03 21:17:29 20.8 40 18.5
0038AFD0 2018-10-03 20:14:10 20.8 41 18.9
0038AFD0 2018-10-03 19:10:46 20.8 41 19.2
0038AFD0 2018-10-03 18:07:24 20.8 41 19.9
0038AFD0 2018-10-03 17:04:00 20.8 42 18.1
0038AFD0 2018-10-03 16:00:36 20.8 42 18.9
0038AFD0 2018-10-03 14:57:14 20.8 42 20
0038AFD0 2018-10-03 12:50:24 20.7 41 21.2
0038AFD0 2018-10-03 11:46:57 20.7 42 17.2
0038AFD0 2018-10-03 10:43:27 20.2 49 0